Time,TemperatureF,DewpointF,PressureIn,WindDirection,WindDirectionDegrees,WindSpeedMPH,WindSpeedGustMPH,Humidity,HourlyPrecipIn,Conditions,Clouds,dailyrainin,SoftwareType,DateUTC
2013-05-15 00:03:00,68.6,53.2,29.88,SSE,167,8.0,10.0,58,0.00,CLR,CLR,0.00,WeatherDisplay:10.37,2013-05-15 05:03:00,
2013-05-15 00:09:00,68.6,53.2,29.88,SSE,161,7.0,9.0,58,0.00,CLR,CLR,0.00,WeatherDisplay:10.37,2013-05-15 05:09:00,
2013-05-15 00:15:00,68.6,53.2,29.88,SSE,155,7.0,9.0,58,0.00,CLR,CLR,0.00,WeatherDisplay:10.37,2013-05-15 05:15:00,
2013-05-15 00:21:00,68.6,53.2,29.88,SSE,155,6.0,9.0,58,0.00,CLR,CLR,0.00,WeatherDisplay:10.37,2013-05-15 05:21:00,
2013-05-15 00:27:00,68.9,53.5,29.89,SSE,160,6.0,13.0,58,0.00,CLR,CLR,0.00,WeatherDisplay:10.37,2013-05-15 05:27:00,
2013-05-15 00:33:00,68.8,53.4,29.89,South,175,8.0,9.0,58,0.00,CLR,CLR,0.00,WeatherDisplay:10.37,2013-05-15 05:33:00,
2013-05-15 00:39:00,68.8,53.4,29.89,SSE,161,9.0,13.0,58,0.00,CLR,CLR,0.00,WeatherDisplay:10.37,2013-05-15 05:39:00,
2013-05-15 00:45:00,68.6,53.2,29.89,SSE,161,12.0,16.0,58,0.00,CLR,CLR,0.00,WeatherDisplay:10.37,2013-05-15 05:45:00,
2013-05-15 00:51:00,68.8,53.4,29.89,SSE,159,8.0,12.0,58,0.00,CLR,CLR,0.00,WeatherDisplay:10.37,2013-05-15 05:51:00,
2013-05-15 00:57:00,68.2,52.8,29.89,South,170,9.0,12.0,58,0.00,CLR,CLR,0.00,WeatherDisplay:10.37,2013-05-15 05:57:00,
2013-05-15 01:03:00,68.1,53.2,29.88,SE,125,5.0,10.0,59,0.00,CLR,CLR,0.00,WeatherDisplay:10.37,2013-05-15 06:03:00,
2013-05-15 01:09:00,68.0,53.1,29.88,SSE,152,6.0,10.0,59,0.00,CLR,CLR,0.00,WeatherDisplay:10.37,2013-05-15 06:09:00,
2013-05-15 01:15:00,67.9,53.0,29.88,SSE,164,7.0,8.0,59,0.00,CLR,CLR,0.00,WeatherDisplay:10.37,2013-05-15 06:15:00,
2013-05-15 01:21:00,67.9,53.0,29.88,SSE,161,8.0,12.0,59,0.00,CLR,CLR,0.00,WeatherDisplay:10.37,2013-05-15 06:21:00,
2013-05-15 01:27:00,68.0,53.1,29.88,South,171,10.0,12.0,59,0.00,CLR,CLR,0.00,WeatherDisplay:10.37,2013-05-15 06:27:00,
2013-05-15 01:33:00,68.0,53.1,29.88,SSE,164,9.0,14.0,59,0.00,CLR,CLR,0.00,WeatherDisplay:10.37,2013-05-15 06:33:00,
2013-05-15 01:39:00,67.8,53.4,29.88,SE,142,7.0,13.0,60,0.00,CLR,CLR,0.00,WeatherDisplay:10.37,2013-05-15 06:39:00,
2013-05-15 01:45:00,67.5,53.1,29.88,SSE,165,9.0,14.0,60,0.00,CLR,CLR,0.00,WeatherDisplay:10.37,2013-05-15 06:45:00,
2013-05-15 01:51:00,67.3,53.8,29.88,SSE,165,8.0,10.0,62,0.00,CLR,CLR,0.00,WeatherDisplay:10.37,2013-05-15 06:51:00,
2013-05-15 01:57:00,67.3,53.8,29.88,South,171,7.0,12.0,62,0.00,CLR,CLR,0.00,WeatherDisplay:10.37,2013-05-15 06:57:00,
2013-05-15 02:03:00,67.1,53.6,29.88,SSE,167,12.0,15.0,62,0.00,CLR,CLR,0.00,WeatherDisplay:10.37,2013-05-15 07:03:00,
2013-05-15 02:09:00,67.1,54.0,29.88,SE,143,10.0,18.0,63,0.00,CLR,CLR,0.00,WeatherDisplay:10.37,2013-05-15 07:09:00,
2013-05-15 02:15:00,67.1,54.0,29.88,ESE,122,7.0,7.0,63,0.00,CLR,CLR,0.00,WeatherDisplay:10.37,2013-05-15 07:15:00,
2013-05-15 02:21:00,67.0,53.9,29.88,SE,146,9.0,13.0,63,0.00,CLR,CLR,0.00,WeatherDisplay:10.37,2013-05-15 07:21:00,
2013-05-15 02:27:00,66.8,53.8,29.88,SSE,168,8.0,13.0,63,0.00,CLR,CLR,0.00,WeatherDisplay:10.37,2013-05-15 07:27:00,
2013-05-15 02:33:00,66.6,54.0,29.88,SSE,163,7.0,10.0,64,0.00,CLR,CLR,0.00,WeatherDisplay:10.37,2013-05-15 07:33:00,
2013-05-15 02:39:00,66.6,54.0,29.87,SE,146,8.0,10.0,64,0.00,CLR,CLR,0.00,WeatherDisplay:10.37,2013-05-15 07:39:00,
2013-05-15 02:45:00,66.4,53.8,29.87,SSE,148,8.0,15.0,64,0.00,CLR,CLR,0.00,WeatherDisplay:10.37,2013-05-15 07:45:00,
2013-05-15 02:51:00,66.4,53.8,29.87,SSE,157,9.0,13.0,64,0.00,CLR,CLR,0.00,WeatherDisplay:10.37,2013-05-15 07:51:00,
2013-05-15 02:57:00,66.2,53.6,29.87,SSE,156,9.0,12.0,64,0.00,CLR,CLR,0.00,WeatherDisplay:10.37,2013-05-15 07:57:00,
2013-05-15 03:03:00,66.2,54.0,29.87,SSE,154,7.0,9.0,65,0.00,CLR,CLR,0.00,WeatherDisplay:10.37,2013-05-15 08:03:00,
2013-05-15 03:09:00,66.2,54.0,29.87,SSE,157,6.0,13.0,65,0.00,CLR,CLR,0.00,WeatherDisplay:10.37,2013-05-15 08:09:00,
2013-05-15 03:15:00,66.1,54.0,29.87,SE,140,5.0,8.0,65,0.00,CLR,CLR,0.00,WeatherDisplay:10.37,2013-05-15 08:15:00,
2013-05-15 03:21:00,65.9,53.8,29.87,SE,146,5.0,9.0,65,0.00,CLR,CLR,0.00,WeatherDisplay:10.37,2013-05-15 08:21:00,
2013-05-15 03:27:00,65.7,53.6,29.88,SSE,152,7.0,12.0,65,0.00,CLR,CLR,0.00,WeatherDisplay:10.37,2013-05-15 08:27:00,
2013-05-15 03:33:00,65.7,53.6,29.88,South,170,7.0,9.0,65,0.00,CLR,CLR,0.00,WeatherDisplay:10.37,2013-05-15 08:33:00,
2013-05-15 03:39:00,65.7,54.0,29.88,SSE,154,8.0,12.0,66,0.00,CLR,CLR,0.00,WeatherDisplay:10.37,2013-05-15 08:39:00,
2013-05-15 03:45:00,65.5,53.8,29.88,SSE,163,7.0,10.0,66,0.00,CLR,CLR,0.00,WeatherDisplay:10.37,2013-05-15 08:45:00,
2013-05-15 03:51:00,65.5,53.8,29.88,SSE,151,8.0,10.0,66,0.00,CLR,CLR,0.00,WeatherDisplay:10.37,2013-05-15 08:51:00,
2013-05-15 03:57:00,65.3,53.6,29.88,SSE,156,6.0,12.0,66,0.00,CLR,CLR,0.00,WeatherDisplay:10.37,2013-05-15 08:57:00,
2013-05-15 04:03:00,65.2,53.5,29.87,SSE,150,7.0,9.0,66,0.00,CLR,CLR,0.00,WeatherDisplay:10.37,2013-05-15 09:03:00,
2013-05-15 04:09:00,65.0,53.3,29.87,SSE,147,8.0,12.0,66,0.00,CLR,CLR,0.00,WeatherDisplay:10.37,2013-05-15 09:09:00,
2013-05-15 04:15:00,64.6,52.9,29.88,SE,146,6.0,9.0,66,0.00,CLR,CLR,0.00,WeatherDisplay:10.37,2013-05-15 09:15:00,
2013-05-15 04:21:00,64.6,53.4,29.88,SE,135,7.0,9.0,67,0.00,CLR,CLR,0.00,WeatherDisplay:10.37,2013-05-15 09:21:00,
2013-05-15 04:27:00,64.4,53.2,29.87,SSE,155,8.0,9.0,67,0.00,CLR,CLR,0.00,WeatherDisplay:10.37,2013-05-15 09:27:00,
2013-05-15 04:33:00,64.1,52.9,29.87,SE,140,5.0,9.0,67,0.00,CLR,CLR,0.00,WeatherDisplay:10.37,2013-05-15 09:33:00,
2013-05-15 04:39:00,64.1,52.9,29.88,SSE,151,7.0,9.0,67,0.00,CLR,CLR,0.00,WeatherDisplay:10.37,2013-05-15 09:39:00,
2013-05-15 04:45:00,63.9,52.7,29.88,SSE,156,8.0,12.0,67,0.00,CLR,CLR,0.00,WeatherDisplay:10.37,2013-05-15 09:45:00,
2013-05-15 04:51:00,63.7,52.9,29.88,SSE,148,7.0,9.0,68,0.00,CLR,CLR,0.00,WeatherDisplay:10.37,2013-05-15 09:51:00,
2013-05-15 04:57:00,63.4,52.7,29.88,SSE,148,6.0,8.0,68,0.00,CLR,CLR,0.00,WeatherDisplay:10.37,2013-05-15 09:57:00,
2013-05-15 05:03:00,63.4,52.6,29.87,SE,138,8.0,11.0,68,0.00,CLR,CLR,0.00,WeatherDisplay:10.37,2013-05-15 10:03:00,
2013-05-15 05:09:00,63.0,52.6,29.87,SSE,149,9.0,12.0,69,0.00,CLR,CLR,0.00,WeatherDisplay:10.37,2013-05-15 10:09:00,
2013-05-15 05:15:00,63.0,52.6,29.87,SE,143,8.0,12.0,69,0.00,CLR,CLR,0.00,WeatherDisplay:10.37,2013-05-15 10:15:00,
2013-05-15 05:21:00,62.5,52.6,29.87,SSE,152,8.0,12.0,70,0.00,CLR,CLR,0.00,WeatherDisplay:10.37,2013-05-15 10:21:00,
2013-05-15 05:27:00,62.3,52.3,29.88,SSE,161,9.0,12.0,70,0.00,CLR,CLR,0.00,WeatherDisplay:10.37,2013-05-15 10:27:00,
2013-05-15 05:33:00,62.1,52.5,29.88,SSE,152,8.0,12.0,71,0.00,CLR,CLR,0.00,WeatherDisplay:10.37,2013-05-15 10:33:00,
2013-05-15 05:39:00,62.1,52.5,29.87,SSE,155,7.0,10.0,71,0.00,CLR,CLR,0.00,WeatherDisplay:10.37,2013-05-15 10:39:00,
2013-05-15 05:45:00,62.1,52.5,29.87,SSE,158,6.0,9.0,71,0.00,CLR,CLR,0.00,WeatherDisplay:10.37,2013-05-15 10:45:00,
2013-05-15 05:51:00,62.1,52.5,29.87,South,179,8.0,10.0,71,0.00,CLR,CLR,0.00,WeatherDisplay:10.37,2013-05-15 10:51:00,
2013-05-15 05:57:00,62.1,52.5,29.87,SSE,166,7.0,8.0,71,0.00,CLR,CLR,0.00,WeatherDisplay:10.37,2013-05-15 10:57:00,
2013-05-15 06:03:00,61.9,52.4,29.88,SSE,161,7.0,10.0,71,0.00,FEW,FEW,0.00,WeatherDisplay:10.37,2013-05-15 11:03:00,
2013-05-15 06:09:00,61.7,52.2,29.88,SSE,156,8.0,9.0,71,0.00,FEW,FEW,0.00,WeatherDisplay:10.37,2013-05-15 11:09:00,
2013-05-15 06:15:00,61.6,52.1,29.88,SSE,161,8.0,9.0,71,0.00,FEW,FEW,0.00,WeatherDisplay:10.37,2013-05-15 11:15:00,
2013-05-15 06:21:00,61.4,52.3,29.88,SSE,153,6.0,9.0,72,0.00,FEW,FEW,0.00,WeatherDisplay:10.37,2013-05-15 11:21:00,
2013-05-15 06:30:00,61.4,52.3,29.87,SE,146,7.0,12.0,72,0.00,FEW,FEW,0.00,WeatherDisplay:10.37,2013-05-15 11:30:00,
2013-05-15 06:36:00,61.2,52.1,29.87,SSE,159,6.0,8.0,72,0.00,FEW,FEW,0.00,WeatherDisplay:10.37,2013-05-15 11:36:00,
2013-05-15 06:42:00,61.1,52.4,29.89,SSE,163,5.0,7.0,73,0.00,FEW,FEW,0.00,WeatherDisplay:10.37,2013-05-15 11:42:00,
2013-05-15 06:48:00,61.0,52.2,29.88,SSE,154,6.0,8.0,73,0.00,FEW,FEW,0.00,WeatherDisplay:10.37,2013-05-15 11:48:00,
2013-05-15 06:54:00,61.0,52.2,29.88,SE,144,6.0,9.0,73,0.00,FEW,FEW,0.00,WeatherDisplay:10.37,2013-05-15 11:54:00,
2013-05-15 07:00:00,61.0,53.0,29.88,SSE,153,3.0,7.0,75,0.00,FEW,FEW,0.00,WeatherDisplay:10.37,2013-05-15 12:00:00,
2013-05-15 07:06:00,61.2,53.2,29.88,SSE,151,3.0,7.0,75,0.00,FEW,FEW,0.00,WeatherDisplay:10.37,2013-05-15 12:06:00,
2013-05-15 07:12:00,61.2,53.2,29.88,SSE,149,6.0,8.0,75,0.00,FEW,FEW,0.00,WeatherDisplay:10.37,2013-05-15 12:12:00,
2013-05-15 07:18:00,61.6,53.6,29.89,SSE,165,5.0,7.0,75,0.00,FEW,FEW,0.00,WeatherDisplay:10.37,2013-05-15 12:18:00,
2013-05-15 07:27:00,61.9,53.1,29.89,SE,145,6.0,8.0,73,0.00,FEW,FEW,0.00,WeatherDisplay:10.37,2013-05-15 12:27:00,
2013-05-15 07:33:00,62.3,53.5,29.89,SSE,156,5.0,7.0,73,0.00,SCT,SCT,0.00,WeatherDisplay:10.37,2013-05-15 12:33:00,
2013-05-15 07:39:00,62.8,54.0,29.89,South,176,7.0,12.0,73,0.00,SCT,SCT,0.00,WeatherDisplay:10.37,2013-05-15 12:39:00,
2013-05-15 07:45:00,63.2,54.0,29.89,South,176,5.0,9.0,72,0.00,SCT,SCT,0.00,WeatherDisplay:10.37,2013-05-15 12:45:00,
2013-05-15 07:51:00,63.7,54.5,29.89,SSE,161,6.0,8.0,72,0.00,SCT,SCT,0.00,WeatherDisplay:10.37,2013-05-15 12:51:00,
2013-05-15 07:57:00,64.1,54.9,29.89,SSE,151,6.0,12.0,72,0.00,SCT,SCT,0.00,WeatherDisplay:10.37,2013-05-15 12:57:00,
2013-05-15 08:03:00,64.6,54.9,29.89,SSE,157,5.0,10.0,71,0.00,SCT,SCT,0.00,WeatherDisplay:10.37,2013-05-15 13:03:00,
2013-05-15 08:09:00,65.1,55.4,29.89,SSE,161,7.0,10.0,71,0.00,SCT,SCT,0.00,WeatherDisplay:10.37,2013-05-15 13:09:00,
2013-05-15 08:15:00,65.7,55.6,29.89,SE,145,8.0,12.0,70,0.00,SCT,SCT,0.00,WeatherDisplay:10.37,2013-05-15 13:15:00,
2013-05-15 08:21:00,66.7,56.2,29.89,SE,146,9.0,15.0,69,0.00,SCT,SCT,0.00,WeatherDisplay:10.37,2013-05-15 13:21:00,
2013-05-15 08:27:00,67.7,56.3,29.89,SSE,147,8.0,13.0,67,0.00,SCT,SCT,0.00,WeatherDisplay:10.37,2013-05-15 13:27:00,
2013-05-15 08:33:00,67.7,56.3,29.89,SSW,196,13.0,17.0,67,0.00,SCT,SCT,0.00,WeatherDisplay:10.37,2013-05-15 13:33:00,
2013-05-15 08:39:00,67.9,56.5,29.88,SSE,168,9.0,12.0,67,0.00,SCT,SCT,0.00,WeatherDisplay:10.37,2013-05-15 13:39:00,
2013-05-15 08:45:00,68.2,56.8,29.88,South,172,9.0,10.0,67,0.00,SCT,SCT,0.00,WeatherDisplay:10.37,2013-05-15 13:45:00,
2013-05-15 08:54:00,68.6,57.2,29.89,SSE,161,7.0,13.0,67,0.00,SCT,SCT,0.00,WeatherDisplay:10.37,2013-05-15 13:54:00,
2013-05-15 09:00:00,69.0,57.6,29.89,South,182,6.0,12.0,67,0.00,SCT,SCT,0.00,WeatherDisplay:10.37,2013-05-15 14:00:00,
2013-05-15 09:06:00,69.3,57.4,29.89,SSE,165,9.0,13.0,66,0.00,SCT,SCT,0.00,WeatherDisplay:10.37,2013-05-15 14:06:00,
2013-05-15 09:12:00,70.4,58.0,29.89,SE,145,5.0,9.0,65,0.00,SCT,SCT,0.00,WeatherDisplay:10.37,2013-05-15 14:12:00,
2013-05-15 09:18:00,70.6,57.8,29.89,SSE,148,12.0,15.0,64,0.00,SCT,SCT,0.00,WeatherDisplay:10.37,2013-05-15 14:18:00,
2013-05-15 09:24:00,71.1,57.8,29.89,SSE,158,12.0,14.0,63,0.00,SCT,SCT,0.00,WeatherDisplay:10.37,2013-05-15 14:24:00,
2013-05-15 09:30:00,71.6,58.3,29.88,SSE,155,9.0,16.0,63,0.00,SCT,SCT,0.00,WeatherDisplay:10.37,2013-05-15 14:30:00,
2013-05-15 09:36:00,71.6,58.3,29.88,SSE,151,10.0,15.0,63,0.00,SCT,SCT,0.00,WeatherDisplay:10.37,2013-05-15 14:36:00,
2013-05-15 09:42:00,72.4,57.7,29.88,SSE,167,13.0,16.0,60,0.00,SCT,SCT,0.00,WeatherDisplay:10.37,2013-05-15 14:42:00,
2013-05-15 09:48:00,72.9,57.7,29.88,SSE,165,12.0,18.0,59,0.00,SCT,SCT,0.00,WeatherDisplay:10.37,2013-05-15 14:48:00,
2013-05-15 09:54:00,73.4,58.2,29.88,SE,146,9.0,14.0,59,0.00,SCT,SCT,0.00,WeatherDisplay:10.37,2013-05-15 14:54:00,
2013-05-15 10:00:00,74.2,59.0,29.88,SE,145,7.0,10.0,59,0.00,SCT,SCT,0.00,WeatherDisplay:10.37,2013-05-15 15:00:00,
2013-05-15 10:06:00,74.2,58.9,29.88,SSE,161,10.0,16.0,59,0.00,SCT,SCT,0.00,WeatherDisplay:10.37,2013-05-15 15:06:00,
2013-05-15 10:12:00,74.1,58.4,29.88,SE,139,8.0,14.0,58,0.00,SCT,SCT,0.00,WeatherDisplay:10.37,2013-05-15 15:12:00,
2013-05-15 10:18:00,74.8,59.5,29.88,SE,133,7.0,12.0,59,0.00,SCT,SCT,0.00,WeatherDisplay:10.37,2013-05-15 15:18:00,
2013-05-15 10:24:00,75.1,59.3,29.88,SSE,159,7.0,10.0,58,0.00,SCT,SCT,0.00,WeatherDisplay:10.37,2013-05-15 15:24:00,
2013-05-15 10:30:00,74.7,59.4,29.88,SSE,163,9.0,13.0,59,0.00,SCT,SCT,0.00,WeatherDisplay:10.37,2013-05-15 15:30:00,
2013-05-15 10:36:00,74.5,59.2,29.88,SSE,149,10.0,15.0,59,0.00,BKN,BKN,0.00,WeatherDisplay:10.37,2013-05-15 15:36:00,
2013-05-15 10:42:00,75.1,59.3,29.88,SE,140,10.0,14.0,58,0.00,BKN,BKN,0.00,WeatherDisplay:10.37,2013-05-15 15:42:00,
2013-05-15 10:51:00,75.6,59.8,29.88,SSE,157,7.0,12.0,58,0.00,BKN,BKN,0.00,WeatherDisplay:10.37,2013-05-15 15:51:00,
2013-05-15 10:57:00,75.5,60.2,29.88,SSE,147,9.0,17.0,59,0.00,BKN,BKN,0.00,WeatherDisplay:10.37,2013-05-15 15:57:00,
2013-05-15 11:03:00,76.0,60.1,29.88,SE,136,9.0,14.0,58,0.00,BKN,BKN,0.00,WeatherDisplay:10.37,2013-05-15 16:03:00,
2013-05-15 11:09:00,75.4,59.5,29.88,ESE,118,10.0,19.0,58,0.00,BKN,BKN,0.00,WeatherDisplay:10.37,2013-05-15 16:09:00,
2013-05-15 11:15:00,75.1,59.3,29.88,SSE,147,10.0,13.0,58,0.00,BKN,BKN,0.00,WeatherDisplay:10.37,2013-05-15 16:15:00,
2013-05-15 11:21:00,75.1,59.3,29.88,SSE,159,8.0,14.0,58,0.00,BKN,BKN,0.00,WeatherDisplay:10.37,2013-05-15 16:21:00,
2013-05-15 11:27:00,75.9,60.0,29.89,SSE,148,6.0,14.0,58,0.00,BKN,BKN,0.00,WeatherDisplay:10.37,2013-05-15 16:27:00,
2013-05-15 11:33:00,76.9,60.0,29.89,ESE,104,7.0,10.0,56,0.00,BKN,BKN,0.00,WeatherDisplay:10.37,2013-05-15 16:33:00,
2013-05-15 11:39:00,77.2,59.8,29.89,SE,140,8.0,14.0,55,0.00,BKN,BKN,0.00,WeatherDisplay:10.37,2013-05-15 16:39:00,
2013-05-15 11:45:00,78.0,60.5,29.89,SSW,192,8.0,12.0,55,0.00,BKN,BKN,0.00,WeatherDisplay:10.37,2013-05-15 16:45:00,
2013-05-15 11:51:00,78.3,60.2,29.89,SSW,206,10.0,16.0,54,0.00,BKN,BKN,0.00,WeatherDisplay:10.37,2013-05-15 16:51:00,
2013-05-15 11:57:00,78.4,60.3,29.89,SSE,164,8.0,17.0,54,0.00,BKN,BKN,0.00,WeatherDisplay:10.37,2013-05-15 16:57:00,
2013-05-15 12:03:00,78.9,60.9,29.89,SSE,149,10.0,14.0,54,0.00,BKN,BKN,0.00,WeatherDisplay:10.37,2013-05-15 17:03:00,
2013-05-15 12:09:00,80.2,61.5,29.89,SSE,151,7.0,13.0,53,0.00,BKN,BKN,0.00,WeatherDisplay:10.37,2013-05-15 17:09:00,
2013-05-15 12:15:00,79.9,60.7,29.88,SE,143,9.0,16.0,52,0.00,BKN,BKN,0.00,WeatherDisplay:10.37,2013-05-15 17:15:00,
2013-05-15 12:21:00,79.7,60.5,29.88,SE,132,10.0,17.0,52,0.00,BKN,BKN,0.00,WeatherDisplay:10.37,2013-05-15 17:21:00,
2013-05-15 12:27:00,78.6,60.6,29.88,SSE,154,7.0,9.0,54,0.00,BKN,BKN,0.00,WeatherDisplay:10.37,2013-05-15 17:27:00,
2013-05-15 12:33:00,79.3,60.6,29.88,SSE,158,9.0,14.0,53,0.00,BKN,BKN,0.00,WeatherDisplay:10.37,2013-05-15 17:33:00,
2013-05-15 12:39:00,79.6,60.9,29.88,South,177,9.0,14.0,53,0.00,BKN,BKN,0.00,WeatherDisplay:10.37,2013-05-15 17:39:00,
2013-05-15 12:45:00,79.9,61.2,29.88,South,185,5.0,12.0,53,0.00,BKN,BKN,0.00,WeatherDisplay:10.37,2013-05-15 17:45:00,
2013-05-15 12:51:00,81.3,62.0,29.87,South,177,8.0,12.0,52,0.00,BKN,BKN,0.00,WeatherDisplay:10.37,2013-05-15 17:51:00,
2013-05-15 12:57:00,80.5,61.3,29.87,SSE,168,9.0,14.0,52,0.00,BKN,BKN,0.00,WeatherDisplay:10.37,2013-05-15 17:57:00,
2013-05-15 13:03:00,81.1,62.3,29.87,SE,141,9.0,14.0,53,0.00,BKN,BKN,0.00,WeatherDisplay:10.37,2013-05-15 18:03:00,
2013-05-15 13:09:00,80.8,62.6,29.87,South,174,8.0,17.0,54,0.00,BKN,BKN,0.00,WeatherDisplay:10.37,2013-05-15 18:09:00,
2013-05-15 13:15:00,80.1,62.9,29.87,South,171,12.0,16.0,56,0.00,BKN,BKN,0.00,WeatherDisplay:10.37,2013-05-15 18:15:00,
2013-05-15 13:21:00,78.9,61.8,29.87,South,179,18.0,23.0,56,0.00,BKN,BKN,0.00,WeatherDisplay:10.37,2013-05-15 18:21:00,
2013-05-15 13:27:00,78.7,62.1,29.87,SSE,167,13.0,17.0,57,0.00,BKN,BKN,0.00,WeatherDisplay:10.37,2013-05-15 18:27:00,
2013-05-15 13:33:00,77.9,61.4,29.87,SSE,149,9.0,20.0,57,0.00,BKN,BKN,0.00,WeatherDisplay:10.37,2013-05-15 18:33:00,
2013-05-15 13:39:00,76.3,60.5,29.88,SSE,160,14.0,22.0,58,0.00,BKN,BKN,0.00,WeatherDisplay:10.37,2013-05-15 18:39:00,
2013-05-15 13:45:00,76.0,60.6,29.88,SSE,155,9.0,19.0,59,0.00,BKN,BKN,0.00,WeatherDisplay:10.37,2013-05-15 18:45:00,
2013-05-15 13:51:00,75.7,60.3,29.87,SE,134,10.0,21.0,59,0.00,BKN,BKN,0.00,WeatherDisplay:10.37,2013-05-15 18:51:00,
2013-05-15 13:57:00,75.6,60.2,29.87,SE,136,8.0,13.0,59,0.00,BKN,BKN,0.00,WeatherDisplay:10.37,2013-05-15 18:57:00,
2013-05-15 14:03:00,76.0,61.1,29.87,SSE,154,6.0,16.0,60,0.00,BKN,BKN,0.00,WeatherDisplay:10.37,2013-05-15 19:03:00,
2013-05-15 14:09:00,75.4,60.5,29.87,SE,138,9.0,17.0,60,0.00,BKN,BKN,0.00,WeatherDisplay:10.37,2013-05-15 19:09:00,
2013-05-15 14:15:00,75.8,60.9,29.86,SE,144,8.0,19.0,60,0.00,BKN,BKN,0.00,WeatherDisplay:10.37,2013-05-15 19:15:00,
2013-05-15 14:21:00,75.2,60.4,29.86,SE,146,10.0,17.0,60,0.00,BKN,BKN,0.00,WeatherDisplay:10.37,2013-05-15 19:21:00,
2013-05-15 14:27:00,75.1,60.2,29.86,SE,138,10.0,18.0,60,0.00,BKN,BKN,0.00,WeatherDisplay:10.37,2013-05-15 19:27:00,
2013-05-15 14:33:00,75.7,61.7,29.86,SE,125,8.0,13.0,62,0.00,BKN,BKN,0.00,WeatherDisplay:10.37,2013-05-15 19:33:00,
2013-05-15 14:39:00,75.1,61.2,29.86,SE,144,14.0,17.0,62,0.00,BKN,BKN,0.00,WeatherDisplay:10.37,2013-05-15 19:39:00,
2013-05-15 14:45:00,74.7,61.2,29.86,South,169,8.0,14.0,63,0.00,BKN,BKN,0.00,WeatherDisplay:10.37,2013-05-15 19:45:00,
2013-05-15 14:51:00,75.1,61.6,29.86,SSE,167,9.0,14.0,63,0.00,BKN,BKN,0.00,WeatherDisplay:10.37,2013-05-15 19:51:00,
2013-05-15 14:57:00,74.9,61.9,29.86,SSE,162,8.0,12.0,64,0.00,BKN,BKN,0.00,WeatherDisplay:10.37,2013-05-15 19:57:00,
2013-05-15 15:03:00,74.3,61.3,29.86,SSE,161,10.0,14.0,64,0.00,BKN,BKN,0.00,WeatherDisplay:10.37,2013-05-15 20:03:00,
2013-05-15 15:09:00,74.2,61.6,29.86,SSE,152,13.0,17.0,65,0.00,BKN,BKN,0.00,WeatherDisplay:10.37,2013-05-15 20:09:00,
2013-05-15 15:15:00,74.4,62.3,29.86,SSE,153,8.0,14.0,66,0.00,BKN,BKN,0.00,WeatherDisplay:10.37,2013-05-15 20:15:00,
2013-05-15 15:21:00,74.5,62.4,29.86,SSE,164,8.0,12.0,66,0.00,BKN,BKN,0.00,WeatherDisplay:10.37,2013-05-15 20:21:00,
2013-05-15 15:27:00,74.2,62.1,29.86,SE,144,9.0,16.0,66,0.00,BKN,BKN,0.00,WeatherDisplay:10.37,2013-05-15 20:27:00,
2013-05-15 15:36:00,73.8,62.1,29.86,South,179,12.0,15.0,67,0.00,BKN,BKN,0.00,WeatherDisplay:10.37,2013-05-15 20:36:00,
2013-05-15 15:42:00,73.6,61.9,29.86,SSE,158,9.0,13.0,67,0.00,BKN,BKN,0.00,WeatherDisplay:10.37,2013-05-15 20:42:00,
2013-05-15 15:48:00,73.8,62.1,29.85,SSE,158,7.0,16.0,67,0.00,BKN,BKN,0.00,WeatherDisplay:10.37,2013-05-15 20:48:00,
2013-05-15 15:54:00,73.8,62.2,29.85,SSE,155,12.0,18.0,67,0.00,BKN,BKN,0.00,WeatherDisplay:10.37,2013-05-15 20:54:00,
2013-05-15 16:00:00,73.7,62.0,29.85,South,185,10.0,14.0,67,0.00,BKN,BKN,0.00,WeatherDisplay:10.37,2013-05-15 21:00:00,
2013-05-15 16:06:00,73.5,62.3,29.86,SSE,164,13.0,17.0,68,0.00,-RA,-RA,0.00,WeatherDisplay:10.37,2013-05-15 21:06:00,
2013-05-15 16:12:00,73.3,62.1,29.86,SE,130,9.0,14.0,68,0.00,-RA,-RA,0.00,WeatherDisplay:10.37,2013-05-15 21:12:00,
2013-05-15 16:18:00,73.3,62.1,29.85,SE,143,9.0,15.0,68,0.00,-RA,-RA,0.00,WeatherDisplay:10.37,2013-05-15 21:18:00,
2013-05-15 16:24:00,73.6,62.8,29.85,South,169,6.0,8.0,69,0.00,-RA,-RA,0.00,WeatherDisplay:10.37,2013-05-15 21:24:00,
2013-05-15 16:36:00,73.4,62.6,29.85,SSE,165,3.0,14.0,69,0.00,-RA,-RA,0.00,WeatherDisplay:10.37,2013-05-15 21:36:00,
2013-05-15 16:42:00,73.3,62.1,29.85,SE,135,6.0,11.0,68,0.00,-RA,-RA,0.00,WeatherDisplay:10.37,2013-05-15 21:42:00,
2013-05-15 16:48:00,73.3,62.1,29.85,ESE,121,8.0,12.0,68,0.00,-RA,-RA,0.00,WeatherDisplay:10.37,2013-05-15 21:48:00,
2013-05-15 16:54:00,73.4,62.2,29.85,ESE,116,7.0,12.0,68,0.00,-RA,-RA,0.00,WeatherDisplay:10.37,2013-05-15 21:54:00,
2013-05-15 17:00:00,73.6,62.3,29.85,SSE,153,6.0,7.0,68,0.00,-RA,-RA,0.00,WeatherDisplay:10.37,2013-05-15 22:00:00,
2013-05-15 17:06:00,73.9,62.7,29.84,SSE,160,3.0,7.0,68,0.00,OVC,OVC,0.00,WeatherDisplay:10.37,2013-05-15 22:06:00,
2013-05-15 17:12:00,74.2,62.9,29.84,SSE,157,7.0,12.0,68,0.00,OVC,OVC,0.00,WeatherDisplay:10.37,2013-05-15 22:12:00,
2013-05-15 17:18:00,74.2,62.9,29.84,SSE,147,7.0,9.0,68,0.00,OVC,OVC,0.00,WeatherDisplay:10.37,2013-05-15 22:18:00,
2013-05-15 17:24:00,74.3,62.6,29.84,SE,138,2.0,7.0,67,0.00,OVC,OVC,0.00,WeatherDisplay:10.37,2013-05-15 22:24:00,
2013-05-15 17:30:00,74.5,62.8,29.83,SSE,159,8.0,12.0,67,0.00,OVC,OVC,0.00,WeatherDisplay:10.37,2013-05-15 22:30:00,
2013-05-15 17:36:00,75.0,62.9,29.83,SSE,149,3.0,7.0,66,0.00,OVC,OVC,0.00,WeatherDisplay:10.37,2013-05-15 22:36:00,
2013-05-15 17:42:00,75.4,63.2,29.83,SSE,159,7.0,9.0,66,0.00,OVC,OVC,0.00,WeatherDisplay:10.37,2013-05-15 22:42:00,
2013-05-15 17:48:00,75.2,63.1,29.83,SSE,157,6.0,7.0,66,0.00,OVC,OVC,0.00,WeatherDisplay:10.37,2013-05-15 22:48:00,
2013-05-15 17:54:00,75.1,63.4,29.83,SE,139,8.0,12.0,67,0.00,OVC,OVC,0.00,WeatherDisplay:10.37,2013-05-15 22:54:00,
2013-05-15 18:00:00,74.4,63.2,29.83,SE,143,12.0,14.0,68,0.00,OVC,OVC,0.00,WeatherDisplay:10.37,2013-05-15 23:00:00,
2013-05-15 18:06:00,73.7,62.9,29.83,SSE,156,10.0,17.0,69,0.00,OVC,OVC,0.00,WeatherDisplay:10.37,2013-05-15 23:06:00,
2013-05-15 18:12:00,73.1,62.7,29.83,SSE,159,12.0,14.0,70,0.00,OVC,OVC,0.00,WeatherDisplay:10.37,2013-05-15 23:12:00,
2013-05-15 18:18:00,72.7,62.0,29.84,South,172,8.0,15.0,69,0.00,OVC,OVC,0.00,WeatherDisplay:10.37,2013-05-15 23:18:00,
2013-05-15 18:24:00,72.7,61.1,29.84,SSE,160,13.0,16.0,67,0.00,OVC,OVC,0.00,WeatherDisplay:10.37,2013-05-15 23:24:00,
2013-05-15 18:30:00,71.3,59.4,29.83,South,169,13.0,19.0,66,0.00,OVC,OVC,0.00,WeatherDisplay:10.37,2013-05-15 23:30:00,
2013-05-15 18:36:00,71.3,58.9,29.83,SSE,149,8.0,17.0,65,0.00,OVC,OVC,0.00,WeatherDisplay:10.37,2013-05-15 23:36:00,
2013-05-15 18:42:00,70.8,58.5,29.83,SSE,147,12.0,16.0,65,0.00,OVC,OVC,0.00,WeatherDisplay:10.37,2013-05-15 23:42:00,
2013-05-15 18:48:00,70.7,58.3,29.83,SSE,161,12.0,16.0,65,0.00,OVC,OVC,0.00,WeatherDisplay:10.37,2013-05-15 23:48:00,
2013-05-15 18:54:00,70.9,58.5,29.83,SSE,148,6.0,9.0,65,0.00,OVC,OVC,0.00,WeatherDisplay:10.37,2013-05-15 23:54:00,
2013-05-15 19:00:00,70.7,58.3,29.83,ESE,113,7.0,10.0,65,0.00,OVC,OVC,0.00,WeatherDisplay:10.37,2013-05-16 00:00:00,
2013-05-15 19:06:00,70.9,58.5,29.83,SE,141,6.0,10.0,65,0.00,BKN,BKN,0.00,WeatherDisplay:10.37,2013-05-16 00:06:00,
2013-05-15 19:12:00,71.5,59.1,29.82,South,186,5.0,6.0,65,0.00,BKN,BKN,0.00,WeatherDisplay:10.37,2013-05-16 00:12:00,
2013-05-15 19:18:00,72.1,59.2,29.82,SE,137,3.0,6.0,64,0.00,BKN,BKN,0.00,WeatherDisplay:10.37,2013-05-16 00:18:00,
2013-05-15 19:24:00,71.5,58.2,29.82,SSE,153,8.0,10.0,63,0.00,BKN,BKN,0.00,WeatherDisplay:10.37,2013-05-16 00:24:00,
2013-05-15 19:30:00,71.3,58.0,29.82,SSE,152,6.0,9.0,63,0.00,BKN,BKN,0.00,WeatherDisplay:10.37,2013-05-16 00:30:00,
2013-05-15 19:36:00,71.2,57.9,29.82,SSE,160,3.0,8.0,63,0.00,BKN,BKN,0.00,WeatherDisplay:10.37,2013-05-16 00:36:00,
2013-05-15 19:42:00,71.7,58.4,29.81,SE,146,2.0,6.0,63,0.00,BKN,BKN,0.00,WeatherDisplay:10.37,2013-05-16 00:42:00,
2013-05-15 19:48:00,72.5,58.7,29.81,SSE,168,2.0,4.0,62,0.00,BKN,BKN,0.00,WeatherDisplay:10.37,2013-05-16 00:48:00,
2013-05-15 19:54:00,73.2,58.1,29.81,WSW,252,2.0,7.0,59,0.00,BKN,BKN,0.00,WeatherDisplay:10.37,2013-05-16 00:54:00,
2013-05-15 20:00:00,71.6,56.9,29.81,WSW,238,2.0,6.0,60,0.00,BKN,BKN,0.00,WeatherDisplay:10.37,2013-05-16 01:00:00,
2013-05-15 20:06:00,71.6,57.9,29.81,West,261,2.0,3.0,62,0.00,BKN,BKN,0.00,WeatherDisplay:10.37,2013-05-16 01:06:00,
2013-05-15 20:12:00,71.0,57.4,29.82,West,267,3.0,5.0,62,0.00,BKN,BKN,0.00,WeatherDisplay:10.37,2013-05-16 01:12:00,
2013-05-15 20:18:00,70.0,57.3,29.82,SSE,164,5.0,6.0,64,0.00,BKN,BKN,0.00,WeatherDisplay:10.37,2013-05-16 01:18:00,
2013-05-15 20:24:00,69.7,56.9,29.82,SE,131,2.0,3.0,64,0.00,BKN,BKN,0.00,WeatherDisplay:10.37,2013-05-16 01:24:00,
2013-05-15 20:30:00,69.2,56.9,29.82,ESE,118,1.0,4.0,65,0.00,BKN,BKN,0.00,WeatherDisplay:10.37,2013-05-16 01:30:00,
2013-05-15 20:36:00,68.4,57.0,29.82,SE,128,2.0,4.0,67,0.00,BKN,BKN,0.00,WeatherDisplay:10.37,2013-05-16 01:36:00,
2013-05-15 20:42:00,67.9,56.5,29.82,ESE,109,0.0,2.0,67,0.00,BKN,BKN,0.00,WeatherDisplay:10.37,2013-05-16 01:42:00,
2013-05-15 20:48:00,67.5,56.5,29.82,East,99,0.0,2.0,68,0.00,BKN,BKN,0.00,WeatherDisplay:10.37,2013-05-16 01:48:00,
2013-05-15 20:54:00,66.8,56.3,29.83,East,87,0.0,0.0,69,0.00,BKN,BKN,0.00,WeatherDisplay:10.37,2013-05-16 01:54:00,
2013-05-15 21:00:00,66.4,56.3,29.83,East,83,0.0,0.0,70,0.00,BKN,BKN,0.00,WeatherDisplay:10.37,2013-05-16 02:00:00,
2013-05-15 21:06:00,66.2,56.1,29.84,ENE,69,0.0,0.0,70,0.00,BKN,BKN,0.00,WeatherDisplay:10.37,2013-05-16 02:06:00,
2013-05-15 21:12:00,66.1,56.0,29.84,East,91,0.0,0.0,70,0.00,BKN,BKN,0.00,WeatherDisplay:10.37,2013-05-16 02:12:00,
2013-05-15 21:18:00,65.7,56.0,29.84,SE,137,0.0,0.0,71,0.00,BKN,BKN,0.00,WeatherDisplay:10.37,2013-05-16 02:18:00,
2013-05-15 21:24:00,65.3,55.6,29.85,South,173,0.0,0.0,71,0.00,BKN,BKN,0.00,WeatherDisplay:10.37,2013-05-16 02:24:00,
2013-05-15 21:30:00,65.0,55.7,29.85,South,191,0.0,0.0,72,0.00,BKN,BKN,0.00,WeatherDisplay:10.37,2013-05-16 02:30:00,
2013-05-15 21:36:00,64.6,55.7,29.84,SW,225,0.0,0.0,73,0.00,BKN,BKN,0.00,WeatherDisplay:10.37,2013-05-16 02:36:00,
2013-05-15 21:42:00,64.3,55.4,29.84,South,185,0.0,0.0,73,0.00,BKN,BKN,0.00,WeatherDisplay:10.37,2013-05-16 02:42:00,
2013-05-15 21:48:00,63.9,56.1,29.84,SSE,158,0.0,0.0,76,0.00,BKN,BKN,0.00,WeatherDisplay:10.37,2013-05-16 02:48:00,
2013-05-15 21:54:00,63.7,56.3,29.84,SSE,152,0.0,0.0,77,0.00,BKN,BKN,0.00,WeatherDisplay:10.37,2013-05-16 02:54:00,
2013-05-15 22:00:00,63.5,56.1,29.84,SE,127,0.0,0.0,77,0.00,BKN,BKN,0.00,WeatherDisplay:10.37,2013-05-16 03:00:00,
2013-05-15 22:06:00,63.3,56.3,29.84,North,349,0.0,0.0,78,0.00,BKN,BKN,0.00,WeatherDisplay:10.37,2013-05-16 03:06:00,
2013-05-15 22:12:00,63.0,56.3,29.84,North,354,0.0,0.0,79,0.00,BKN,BKN,0.00,WeatherDisplay:10.37,2013-05-16 03:12:00,
2013-05-15 22:18:00,62.8,56.1,29.85,NNE,12,0.0,0.0,79,0.00,BKN,BKN,0.00,WeatherDisplay:10.37,2013-05-16 03:18:00,
2013-05-15 22:24:00,62.8,56.1,29.85,East,85,0.0,0.0,79,0.00,BKN,BKN,0.00,WeatherDisplay:10.37,2013-05-16 03:24:00,
2013-05-15 22:30:00,62.8,56.5,29.85,East,90,0.0,0.0,80,0.00,BKN,BKN,0.00,WeatherDisplay:10.37,2013-05-16 03:30:00,
2013-05-15 22:36:00,62.8,56.5,29.85,East,90,0.0,0.0,80,0.00,BKN,BKN,0.00,WeatherDisplay:10.37,2013-05-16 03:36:00,
2013-05-15 22:42:00,62.8,56.6,29.85,East,91,0.0,0.0,80,0.00,BKN,BKN,0.00,WeatherDisplay:10.37,2013-05-16 03:42:00,
2013-05-15 22:48:00,63.5,57.2,29.85,ESE,123,0.0,0.0,80,0.00,BKN,BKN,0.00,WeatherDisplay:10.37,2013-05-16 03:48:00,
2013-05-15 22:54:00,63.9,58.3,29.85,SE,130,0.0,0.0,82,0.00,BKN,BKN,0.00,WeatherDisplay:10.37,2013-05-16 03:54:00,
2013-05-15 23:00:00,64.1,59.1,29.85,East,88,0.0,0.0,84,0.00,BKN,BKN,0.00,WeatherDisplay:10.37,2013-05-16 04:00:00,
2013-05-15 23:03:00,64.3,59.7,29.85,ENE,73,0.0,0.0,85,0.00,BKN,BKN,0.00,WeatherDisplay:10.37,2013-05-16 04:03:00,
2013-05-15 23:06:00,64.4,59.8,29.85,East,82,0.0,0.0,85,0.00,BKN,BKN,0.00,WeatherDisplay:10.37,2013-05-16 04:06:00,
2013-05-15 23:12:00,65.2,60.9,29.85,East,87,0.0,0.0,86,0.00,BKN,BKN,0.00,WeatherDisplay:10.37,2013-05-16 04:12:00,
2013-05-15 23:18:00,65.5,61.5,29.86,ENE,78,0.0,0.0,87,0.00,BKN,BKN,0.00,WeatherDisplay:10.37,2013-05-16 04:18:00,
2013-05-15 23:21:00,65.7,61.7,29.86,ENE,74,0.0,0.0,87,0.00,BKN,BKN,0.00,WeatherDisplay:10.37,2013-05-16 04:21:00,
2013-05-15 23:24:00,66.1,62.1,29.86,East,84,0.0,0.0,87,0.00,BKN,BKN,0.00,WeatherDisplay:10.37,2013-05-16 04:24:00,
2013-05-15 23:30:00,66.1,62.1,29.86,East,93,0.0,0.0,87,0.00,BKN,BKN,0.00,WeatherDisplay:10.37,2013-05-16 04:30:00,
2013-05-15 23:36:00,66.2,62.2,29.86,ESE,114,1.0,3.0,87,0.00,BKN,BKN,0.00,WeatherDisplay:10.37,2013-05-16 04:36:00,
2013-05-15 23:42:00,66.6,62.6,29.87,SE,129,5.0,7.0,87,0.00,BKN,BKN,0.00,WeatherDisplay:10.37,2013-05-16 04:42:00,
2013-05-15 23:48:00,66.6,62.6,29.87,ESE,117,0.0,0.0,87,0.00,BKN,BKN,0.00,WeatherDisplay:10.37,2013-05-16 04:48:00,
2013-05-15 23:54:00,66.3,62.3,29.87,ESE,117,2.0,3.0,87,0.00,BKN,BKN,0.00,WeatherDisplay:10.37,2013-05-16 04:54:00,